sat.trackr.live / text

‹ back to catalog

STARLINK-11444 [DTC]

NORAD 62409 · 2024-249A

PAYLOAD ACTIVE UNKNOWN

§ Identity

Operator
Country
US
Launch date
2024-12-23
Launch site
AFETR
Launch vehicle
Mass (kg)
RCS (m²)

Purposes: comms

External: N2YO · Heavens-Above · Gunter

§ Orbital elements

Epoch: 2026-09-21T18:11:35.405088Z

Period
91.67 min
Inclination
42.9994°
Eccentricity
0.0002242
Mean motion
15.70871361 rev/d
Perigee alt
354.9 km
Apogee alt
357.9 km
Semi-major
6,734.5 km
B*
9.4144e-4
RAAN
66.1286°
Arg perigee
279.1719°
Mean anomaly
80.8895°
Rev number
10,031

§ Raw data

STARLINK-11444 [DTC]1 62409U 24249A   26264.75804867  .00122310  00000+0  94144-3 0  99902 62409  42.9994  66.1286 0002242 279.1719  80.8895 15.70871361100317

JSON: /api/v1/satellites/62409 · /tle

For live sub-satellite position, see the globe view (requires WebGL).

§ Visibility from observer

Set your observer location to see the next 7 days of passes ≥ 10°. The values pass through the URL so the page stays shareable.

No JS? Fill the form by hand. The geolocation button needs JavaScript.